Location: Unspecified
(39.2690°N, 0.0000°E)
Time: 16:45:43
(UTC+00:00)

Sep Motor Cover - Visible Passes

Search period start: 04 April 2026 00:00
Search period end: 14 April 2026 00:00
Orbit: 643 x 915 km, 97.8° (Epoch: 29 March)

Date Brightness Start Highest point End Pass type
(mag) Time Alt. Az. Time Alt. Az. Time Alt. Az.
4 Apr ? 03:32:13 10° SSE 03:36:28 48° ENE 03:40:45 10° N visible
5 Apr ? 03:00:29 10° ESE 03:03:53 22° ENE 03:07:20 10° NNE visible
5 Apr ? 04:39:14 10° SSW 04:43:07 30° W 04:47:02 10° NW visible
6 Apr ? 02:30:37 10° ENE 02:31:29 10° ENE 02:32:21 10° NE visible
6 Apr ? 04:05:49 10° S 04:10:13 70° WSW 04:14:41 10° NNW visible
7 Apr ? 03:33:13 10° SSE 03:37:28 51° ENE 03:41:49 10° N visible
8 Apr ? 03:01:24 10° ESE 03:04:54 23° ENE 03:08:28 10° NNE visible
8 Apr ? 04:40:19 10° SSW 04:44:08 29° W 04:48:01 10° NW visible
9 Apr ? 02:31:10 10° E 02:32:29 11° ENE 02:33:49 10° NE visible
9 Apr ? 04:06:51 10° S 04:11:13 66° W 04:15:43 10° NNW visible
10 Apr ? 03:34:11 10° SSE 03:38:28 53° ENE 03:42:54 10° N visible
11 Apr ? 03:02:18 10° ESE 03:05:53 25° ENE 03:09:35 10° NNE visible
11 Apr ? 04:41:23 10° SSW 04:45:09 27° W 04:49:02 10° NW visible
12 Apr ? 02:31:48 10° E 02:33:29 12° ENE 02:35:11 10° NE visible
12 Apr ? 04:07:51 10° S 04:12:14 63° W 04:16:46 10° NNW visible
13 Apr ? 03:35:08 10° SSE 03:39:27 56° ENE 03:43:59 10° N visible
